www.pogodaiklimat.ru

Погода и климат >> Архив погоды >> Россия >> Приморский край >> Анучино


ПОГОДА в Анучино

  • Прогноз погоды в Анучино
  • Монитор погоды в Анучино

АРХИВ ПОГОДЫ в Анучино

Время (UTC), дата Ветер
(напр.,м/с)
 
Видим.   Явления Облачность Т
(С)
Тd
(С)
f
(%)
Тe
(С)
Тes
(С)
Комфортность P
(гПа)
Po
(гПа)
Тmin
(С)
Tmax
(С)
R
(мм)
R24
(мм)
S
(см)
21 16.05 ЮЗ 1 50 км 10/0
[Ac und]
+14.2 +10.8 80 +15 +15 1011.8 989.7 +12.3
00 17.05 ЮЗ 3 50 км 10/0
[Cs]
+21.1 +11.3 54 +23 +30 комфорт 1010.9 989.3
03 17.05 ЮЗ 4 50 км 3/3 600 м
[Cu med, cong]
+26.6 +8.2 31 +27 +35 жарко 1009.6 988.5
06 17.05 Ю 3
{10}
50 км 1/1 600 м
[Cu hum]
+28.2 +9.6 31 +28 +37 жарко 1008.0 986.9
09 17.05 Ю 2 50 км ясно +26.0 +8.2 32 +26 +28 жарко 1009.4 988.2 +28.8
12 17.05 штиль 0 50 км ясно +17.7 +8.2 54 +18 +18 1011.0 989.2
15 17.05 ЮЗ 2 50 км 3/0
[Ci fib]
+17.2 +7.5 53 +18 +18 1012.2 990.3
18 17.05 Ю 1 50 км 10/0
[Cs]
+11.6 +8.3 80 +11 +11 1013.4 991.1
21 17.05 ЮЗ 2 50 км 10/0
[Cs]
+11.6 +8.8 83 +10 +11 1013.4 991.0 +10.0
00 18.05 Ю 1 50 км 10/0
[Cs]
+21.7 +10.7 50 +24 +34 комфорт 1012.6 991.0
03 18.05 ЮЗ 5-11
{11}
50 км 10/0
[Cs]
+27.3 +7.5 29 +27 +35 жарко 1012.2 991.0
06 18.05 ЮЗ 5-11
{13}
50 км 8/0
[Ci fib]
+26.9 +7.3 29 +27 +32 жарко 1011.1 989.9
09 18.05 ЮЗ 5-11
{12}
50 км 8/0
[Ci fib]
+25.2 +6.2 30 +25 +26 комфорт 1010.7 989.4 +27.9
12 18.05 ЮЗ 3
{11}
50 км 4/0
[Cs]
+20.3 +9.1 49 +22 +22 комфорт 1012.3 990.6
15 18.05 Ю 1 50 км 10/0
[Cs]
+16.8 +9.6 62 +18 +18 1013.6 991.7
18 18.05 штиль 0 50 км 10/0
[Ac lent]
+14.8 +10.0 73 +15 +15 1014.2 992.1
21 18.05 ЮЗ 1 50 км 3/0
[Ci sp]
+13.6 +10.4 81 +14 +15 1013.8 991.6 +10.7
00 19.05 Ю 3 50 км 4/0
[Ci fib]
+21.8 +8.1 41 +23 +31 комфорт 1012.4 990.8
03 19.05 ЮЗ 5-11
{11}
50 км 8/4 600 м
[Cu med, cong Ci]
+25.1 +7.7 33 +25 +30 комфорт 1011.7 990.4
06 19.05 Ю 4
{11}
50 км 8/8 600 м
[Cu med, cong]
+27.0 +9.6 34 +27 +29 жарко 1008.6 987.5
09 19.05 Ю 3
{11}
50 км 10/3 600 м
[Sc diur, vesp Cc]
+22.8 +9.0 41 +24 +25 комфорт 1007.9 986.5 +27.2
12 19.05 Ю 2 50 км 10/10 600 м
[Sc]
+19.2 +9.9 55 +21 +21 комфорт 1007.5 985.7
15 19.05 Ю 2 50 км 10/10 600 м
[Sc]
+17.4 +9.7 61 +18 +18 1004.8 983.1
18 19.05 ЮЗ 2 50 км 10/10 600 м
[Sc diur, vesp]
+17.1 +10.4 65 +17 +17 1000.9 979.3
21 19.05 ЮЗ 2 50 км в посл. час ливневой дождь 10/10 600 м
[Sc diur, vesp]
+16.3 +11.5 73 +16 +16 997.4 975.6 +16.3 0.0
00 20.05 ЮЗ 2 50 км {ливн. осадки} 10/10 600 м
[Sc diur, vesp]
+17.3 +13.1 76 +18 +18 994.6 973.1
03 20.05 ЮЗ 2 20 км слаб. ливневой дождь 10/10 600 м
[Cb cap]
+15.5 +15.2 98 +15 +15 993.1 971.5
06 20.05 Ю 3 50 км в посл. час ливневой дождь 10/10 600 м
[Sc diur, vesp]
+16.0 +12.5 80 +16 +16 992.9 971.4
09 20.05 Ю 2 50 км 9/0
[Ac As]
+15.9 +8.3 61 +16 +17 992.8 971.2 +17.5 12
12 20.05 ЮЗ 2 50 км 3/0
[Ac trans]
+11.5 +8.4 81 +10 +10 994.5 972.5
15 20.05 штиль 0 50 км ясно +7.6 +6.7 94 +7 +7 995.6 973.3
18 20.05 ЮЗ 1 50 км ясно +5.7 +5.3 97 +4 +4 995.9 973.4
21 20.05 ЮЗ 1 50 км ясно +5.7 +5.3 97 +4 +6 995.9 973.5 +4.6
00 21.05 Ю 3 50 км 8/0
[Ci fib]
+16.4 +5.4 48 +16 +24 994.3 972.7
03 21.05 ЮЗ 4
{11}
50 км 8/8 600 м
[Cu med, cong]
+18.5 +2.9 35 +19 +21 993.1 971.7
06 21.05 ЮЗ 4-10
{11}
50 км 6/6 600 м
[Cu med, cong]
+20.3 +1.0 28 +21 +24 комфорт 992.0 970.7
09 21.05 ЮЗ 4-10
{15}
50 км 8/8 600 м
[Cu med, cong]
+15.5 +2.8 42 +15 +15 994.6 972.9 +20.4
12 21.05 ЮЗ 1
{10}
50 км 3/3 600 м
[Sc]
+12.4 +4.0 57 +13 +13 996.1 974.2
15 21.05 ЮЗ 1 50 км 10/10 600 м
[Sc]
+11.3 +5.2 66 +11 +11 996.6 974.6
18 21.05 ЮЗ 1 50 км {ливн. осадки} 10/10 600 м
[Sc]
+8.9 +6.6 85 +8 +8 996.4 974.2
21 21.05 ЮЗ 1 50 км 8/8 600 м
[Cu med, cong]
+9.5 +8.0 90 +9 +9 996.6 974.5 +8.2 1
00 22.05 Ю 2 50 км 10/10 600 м
[Cu Sc]
+12.1 +8.0 76 +11 +11 997.4 975.4
03 22.05 Ю 2 50 км 8/8 600 м
[Cu med, cong]
+15.4 +7.7 60 +15 +19 997.1 975.4
06 22.05 ЮЗ 2 50 км 10/10 600 м
[Cu Sc]
+16.6 +6.3 51 +17 +17 996.8 975.2
09 22.05 ЮЗ 2 50 км {ливн. осадки} 10/3 600 м
[Sc Ac und]
+13.9 +7.9 67 +13 +14 998.6 976.8 +16.7 0.3
12 22.05 ЮЗ 1 50 км {ливн. осадки} 10/3 600 м
[Sc Ac und]
+11.2 +7.7 79 +11 +11 1001.3 979.2
15 22.05 З 2 50 км ясно +9.2 +7.3 88 +7 +7 1002.0 979.7
18 22.05 ЮЗ 1 50 км 10/10 600 м
[Sc]
+6.6 +5.6 93 +5 +5 1003.8 981.2
21 22.05 З 2 20 км 10/10 100 м
[St]
+5.5 +5.1 97 +3 +3 1005.7 983.0 +5.2
00 23.05 ЮЗ 1 50 км 8/0
[Cs]
+13.7 +7.8 68 +14 +25 опасность
простуды
1005.1 983.1
03 23.05 СВ 1 50 км 8/8 600 м
[Cu med, cong]
+18.6 +5.8 43 +20 +24 1004.9 983.2
06 23.05 С 1 50 км 8/8 600 м
[Cu med, cong]
+20.0 +4.2 35 +22 +25 комфорт 1004.7 983.2
09 23.05 С 2 50 км 3/3 600 м
[Cu hum]
+20.0 +4.3 36 +21 +22 комфорт 1005.1 983.5 +21.3
12 23.05 ЮЗ 1 50 км ясно +11.1 +7.1 76 +11 +11 1007.5 985.2
15 23.05 ЮЗ 2 50 км ясно +7.3 +6.1 92 +5 +5 1009.1 986.5
18 23.05 ЮЗ 1 50 км ясно +5.5 +4.4 93 +4 +4 1010.1 987.3

 

Местоположение метеостанции Анучино (Приморский край, Россия): широта 43.97 долгота 133.00 высота над уровнем моря 188 м.

В архиве по умолчанию представлена погода в Анучино за последнюю неделю. Архивные данные за месяц целиком и за предыдущие месяцы, начиная с января 2011 года, Вы можете получить, выбрав интересующий диапазон дат из раскрывающегося списка и нажав кнопку "Ввод!".


*Определитесь, кто Вы:
робот инопланетянин человек

Внимание! Время в таблицах - всемирное. Для получения местного времени необходимо прибавить поправку, которая равна 10 ч.

Смотрите также архив погоды в соседних городах и на ближайших метеорологических станциях:

Погода в Чугуевке (Приморский край, Россия) (67 км)
Погода в Многоудобном (Приморский край, Россия) (70 км)
Погода в Спасск-Дальнем (Приморский край, Россия) (75 км)
Погода в Тимирязевском (Приморский край, Россия) (89 км)
Погода в Лазо (Приморский край, Россия) (90 км)
Погода в Партизанске (Приморский край, Россия) (91 км)
Погода в Свиягино (Приморский край, Россия) (92 км)
Погода в Хороле (Приморский край, Россия) (95 км)
Погода в Астраханке (Приморский край, Россия) (115 км)
Погода в Лучегорске (Приморский край, Россия) (123 км)

Пояснения к столбцам:

Ветер - указаны скорость ветра в м/с - средняя за 10 мин, порывы в срок и между сроками (в фигурных скобках) и направление, откуда дует ветер: С - северный, СВ - северо-восточный, В - восточный, ЮВ - юго-восточный, Ю - южный, ЮЗ - юго-западный, З - западный, СЗ - северо-западный.
Видимость - горизонтальная дальность видимости в метрах или километрах. При видимости от 1 до 10 км при отсутствии осадков обычно наблюдается дымка, при ухудшении видимости до 1 км и менее - туман. В сухую погоду видимость может ухудшаться дымом, пылью или мглою.
Явления - указаны атмосферные явления, наблюдавшиеся в срок или в последний час перед сроком; фигурными скобками обозначены явления, наблюдавшиеся между сроками (за 1-3 часа до срока); квадратными скобками обозначены град или гололедные отложения с указанием их диаметра в мм.
Облачность - указаны через наклонную черту общая и нижняя облачность в баллах и высота нижней границы облаков в метрах; квадратными скобками обозначены формы облаков: Ci - перистые, Cs - перисто-слоистые, Cc - перисто-кучевые, Ac - высококучевые, As - высокослоистые, Sc - слоисто-кучевые, Ns - слоисто-дождевые, Cu - кучевые, Cb - кучево-дождевые. Подробнее классификацию облаков см. в Атласе облаков (PDF).
T - Температура воздуха - температура, измеренная на высоте 2 м над землей.
Td - Температура точки росы - температура, при понижении до которой содержащийся в воздухе водяной пар достигнет насыщения.
f - Относительная влажность воздуха - влажноcть воздуха, измеренная на высоте 2 м над землей.
Te - Эффективная температура - температура, которую ощущает одетый по сезону человек в тени. Характеристика душности погоды. При расчете учитывается влияние влажности воздуха и скорости ветра на теплоощущения человека.
Tes - Эффективная температура на солнце - температура, которую ощущает человек, с поправкой на солнечный нагрев. Характеристика знойности погоды. Зависит от высоты солнца над горизонтом, облачности и скорости ветра. Ночью, в пасмурную погоду, а также при ветре 12 м/с и более поправка равна нулю.
P - Атмосферное давление - приведенное к уровню моря атмосферное давление.
Po - Атмосферное давление - измеренное на уровне метеостанции атмосферное давление.
Tmin - Минимальная температура - минимум температуры воздуха на высоте 2 м над землей.
Tmax - Максимальная температура - максимум температуры воздуха на высоте 2 м над землей.
R - Количество осадков - Количество выпавших осадков за период времени, мм. При наведении курсора мыши на число - период времени, за который выпало указанное количество осадков.
R24 - Количество осадков - Количество выпавших осадков за 24 часа, мм.
S - Снежный покров - Высота снежного покрова, см. При наведении курсора мыши на число - состояние снежного покрова и степень покрытия местности в баллах.